Location: *
(2.5500°S, 65.9667°W)
Time: 14:28:55
(UTC+00:00)

H-2A R/B - Pass Details

Date: 05 June 2022
Orbit: 734 x 836 km, 98.2° (Epoch: 30 June)

Event Time Altitude Azimuth Distance (km) Brightness Sun altitude
Rises 09:58:50 0° 20° (NNE) 3,342 6.0 -6.4°
Reaches altitude 10° 10:01:13 10° 24° (NNE) 2,402 5.3 -5.9°
Maximum altitude 10:06:27 58° 102° (ESE) 930 2.8 -4.7°
Drops below altitude 10° 10:11:34 10° 181° (S) 2,352 4.3 -3.5°
Sets 10:13:53 0° 184° (S) 3,267 5.0 -2.9°
